Showing default

KANOPUS-V 5, 43876

Orbit data source: Space-Track

KANOPUS-V 5, 43876 is a payload satellite owned by VNIIEM (CIS) in SSO that was launched on Thu, 27 Dec 2018 UTC via a SOYUZ-2-1A launch vehicle from the Vostochny Cosmodrome (VOSTO). Payload-class satellites include a variety of spacecraft equipped with specific instruments for various scientific and technological missions. These include communications satellites like Starlink; space stations such as the ISS; scientific satellites like the Hubble; Earth observation satellites from companies like Planet Labs, Umbra, and HawkEye 360; GPS; miniature CubeSats for education and research; and military/defense satellites.

Loading next visibility...
Identifier
43876, 2018-111A
Orbit
SSO
Country
Flag of CISCIS
Related business
Manufacturer
VNIIEM
Mission
Operational Civil Imaging
Bus & Motor
KANOPUS, Unknown motor
Mass
473 kg wet, 473 kg dry
Launch date (UTC)
2018-12-27 (7 years ago)
Launch vehicle
SOYUZ-2-1A
Launch site
Vostochny Cosmodrome (VOSTO)
Object type
Payload
Rocket body
Debris
Shape & HBR
Box + 2 Pan, 3.0 m
Radar Cross Section
1.665 m², Large (>1 m²)

Expand to show TLE details & history
Last TLE update: 8 hours ago

TLE from 8 hours ago
0 KANOPUS-V 5
1 43876U 18111A   26171.28164213  .00001897  00000-0  83652-4 0  9997
2 43876  97.3579  76.7296 0001580  86.2377 273.9041 15.22993706415251
Epoch: 2026-06-20T06:45Z
TLE epoch observation values (Epoch: 2026-06-20T06:45:33.880Z)
Latitude
0.00005°
Longitude
66.83992°
Altitude
499.839 km
Speed
7.615 km/s
True Right ascension
05h 06m 55s
True Declination
0° 00' 00"
Sunlit
Object was in daylight at epoch
Visualization orbit readout
Latitude
Unknown
Longitude
Unknown
Altitude
Unknown
Speed
Unknown
Apparent Right ascension
Unknown
Apparent Declination
Unknown
Sunlit
N/A
Visualization observer readout
Local Sidereal Time
01:51:18
Azimuth
Unknown
Elevation
Unknown
Doppler factor
Unknown
Orbital elements
Apogee altitude
494.862 km
Perigee altitude
492.691 km
Semi-major axis
6,871.913 km
Eccentricity
0.00016
Inclination
97.3579°
RAAN
76.7296°
Arg. of periapsis
86.2377°
True anomaly
273.88604°
Mean anomaly
273.9041°
Eccentric anomaly
273.89507°
Mean motion
3.81001 °/min
Orbital period
94.49 mins
BSTAR
0.000083652
Loading maneuver chart data...
Computing Atmospheric mass density...

Documentation

Showing up to 5 results
|